Weather History for Westfield, MA

Change the Weather History Date:

Saturday, May 4, 2013

  Actual Average Record
Temperature  
Mean Temperature 57 °F -  
Max Temperature 73 °F 65 °F 91 °F (2001)
Min Temperature 41 °F 42 °F 32 °F (2004)
Degree Days  
Heating Degree Days 8    
Growing Degree Days 7 (Base 50)    
Moisture  
Dew Point 36 °F    
Average Humidity 50    
Maximum Humidity 93    
Minimum Humidity 17    
Precipitation  
Precipitation 0.00 in - - ()
Sea Level Pressure  
Sea Level Pressure 30.30 in    
Wind  
Wind Speed 3 mph (ENE)    
Max Wind Speed 10 mph    
Max Gust Speed 21 mph    
Visibility 10 miles    
Events      
Averages and records for this station are not official NWS values.
T = Trace of Precipitation, MM = Missing Value Source: NWS Daily Summary

Daily Weather History Graph

Daily Weather History Graph

Search for Another Location

Airport:

Trip Planner

Search our weather history database for the weather conditions in past years. The results will help you decide how hot, cold, wet, or windy it might be!

Date:

Astronomy

May. 04, 2013 Rise Set
Actual Time 5:42 AM EDT 7:53 PM EDT
Civil Twilight 5:11 AM EDT 8:24 PM EDT
Nautical Twilight 4:33 AM EDT 9:02 PM EDT
Astronomical Twilight 3:51 AM EDT 9:44 PM EDT
Moon 2:45 AM EDT (5/4) 2:43 PM EDT (5/4)
Length of Visible Light 15h 13m
Length of Day
14h 11m
Waning Crescent, 27% of the Moon is Illuminated
May 4
Waning Crescent
May 9
New
May 18
First Quarter
May 25
Full
May 31
Last Quarter

Hourly Weather History & Observations

Time (EDT) Temp. Windchill Dew Point Humidity Pressure Visibility Wind Dir Wind Speed Gust Speed Precip Events Conditions
12:53 AM 48.0 °F - 43.0 °F 83% 30.38 in 10.0 mi Calm Calm - N/A   Clear
1:53 AM 46.9 °F - 42.1 °F 83% 30.35 in 10.0 mi Calm Calm - N/A   Clear
2:53 AM 43.0 °F - 41.0 °F 93% 30.34 in 4.0 mi Calm Calm - N/A   Clear
3:53 AM 42.1 °F - 39.9 °F 92% 30.33 in 10.0 mi Calm Calm - N/A   Clear
4:53 AM 41.0 °F 39.0 °F 39.0 °F 93% 30.33 in 10.0 mi North 3.5 mph - N/A   Clear
5:53 AM 41.0 °F - 39.0 °F 93% 30.34 in 10.0 mi Calm Calm - N/A   Clear
6:53 AM 46.0 °F - 43.0 °F 89% 30.34 in 10.0 mi Calm Calm - N/A   Clear
7:53 AM 51.1 °F - 44.1 °F 77% 30.34 in 10.0 mi Variable 3.5 mph - N/A   Clear
8:53 AM 57.0 °F - 44.1 °F 62% 30.33 in 10.0 mi NNW 4.6 mph - N/A   Clear
9:53 AM 63.0 °F - 43.0 °F 48% 30.32 in 10.0 mi Calm Calm - N/A   Clear
10:53 AM 66.9 °F - 42.1 °F 40% 30.31 in 10.0 mi NNE 6.9 mph - N/A   Clear
11:53 AM 69.1 °F - 42.1 °F 38% 30.30 in 10.0 mi NE 8.1 mph - N/A   Partly Cloudy
12:53 PM 71.1 °F - 39.0 °F 31% 30.27 in 10.0 mi ESE 9.2 mph - N/A   Partly Cloudy
1:53 PM 72.0 °F - 37.0 °F 28% 30.26 in 10.0 mi ENE 9.2 mph 17.3 mph N/A   Clear
2:53 PM 73.0 °F - 30.9 °F 21% 30.25 in 10.0 mi ENE 9.2 mph 20.7 mph N/A   Clear
3:53 PM 73.0 °F - 30.9 °F 21% 30.23 in 10.0 mi North 10.4 mph 19.6 mph N/A   Clear
4:53 PM 72.0 °F - 30.9 °F 22% 30.23 in 10.0 mi Variable 4.6 mph - N/A   Clear
5:53 PM 71.1 °F - 27.0 °F 19% 30.23 in 10.0 mi East 8.1 mph - N/A   Clear
6:53 PM 68.0 °F - 21.0 °F 17% 30.23 in 10.0 mi East 10.4 mph - N/A   Clear
7:53 PM 63.0 °F - 25.0 °F 24% 30.25 in 10.0 mi East 4.6 mph - N/A   Clear
8:53 PM 60.1 °F - 30.9 °F 33% 30.28 in 10.0 mi SE 6.9 mph - N/A   Clear
9:53 PM 55.0 °F - 28.0 °F 35% 30.30 in 10.0 mi Calm Calm - N/A   Clear
10:53 PM 53.1 °F - 23.0 °F 31% 30.31 in 10.0 mi ESE 4.6 mph - N/A   Clear
11:53 PM 50.0 °F - 26.1 °F 39% 30.31 in 10.0 mi East 4.6 mph - N/A   Clear